Weather History for Muscle Shoals, AL

Change the Weather History Date:

Monday, May 26, 2014

  Actual Average Record
Temperature  
Mean Temperature 79 °F 72 °F  
Max Temperature 90 °F 83 °F 97 °F (2012)
Min Temperature 67 °F 62 °F 42 °F (1925)
Degree Days  
Heating Degree Days 0 0  
Month to date heating degree days 42 29  
Since 1 July heating degree days 3395 3102  
Cooling Degree Days 14 8  
Month to date cooling degree days 156 138  
Year to date cooling degree days 201 203  
Growing Degree Days 27 (Base 50)    
Moisture  
Dew Point 66 °F    
Average Humidity 68    
Maximum Humidity 90    
Minimum Humidity 46    
Precipitation  
Precipitation T in 0.16 in 3.09 in (1994)
Month to date precipitation 1.76 4.28  
Year to date precipitation 16.67 22.66  
Snow  
Snow 0.00 in - - ()
Month to date snowfall 0.0  
Since 1 July snowfall 1.4  
Snow Depth 0.00 in    
Sea Level Pressure  
Sea Level Pressure 30.10 in    
Wind  
Wind Speed 3 mph (SE)    
Max Wind Speed 9 mph    
Max Gust Speed 17 mph    
Visibility 10 miles    
Events Thunderstorm    
T = Trace of Precipitation, MM = Missing Value Source: NWS Daily Summary

Daily Weather History Graph

Daily Weather History Graph

Search for Another Location

Airport:

Trip Planner

Search our weather history database for the weather conditions in past years. The results will help you decide how hot, cold, wet, or windy it might be!

Date:

Astronomy

May. 26, 2014 Rise Set
Actual Time 5:40 AM CDT 7:54 PM CDT
Civil Twilight 5:11 AM CDT 8:23 PM CDT
Nautical Twilight 4:36 AM CDT 8:58 PM CDT
Astronomical Twilight 3:58 AM CDT 9:36 PM CDT
Moon 4:16 AM CDT (5/26) 6:01 PM CDT (5/26)
Length of Visible Light 15h 11m
Length of Day
14h 13m
Waning Crescent, 5% of the Moon is Illuminated
May 26
Waning Crescent
May 28
New
Jun 5
First Quarter
Jun 12
Full
Jun 19
Last Quarter

Hourly Weather History & Observations

Time (CDT) Temp. Heat Index Dew Point Humidity Pressure Visibility Wind Dir Wind Speed Gust Speed Precip Events Conditions
12:53 AM 68.0 °F - 63.0 °F 84% 30.08 in 10.0 mi Calm Calm - N/A   Clear
1:53 AM 68.0 °F - 64.0 °F 87% 30.08 in 10.0 mi Calm Calm - N/A   Mostly Cloudy
2:53 AM 66.9 °F - 63.0 °F 87% 30.09 in 10.0 mi Calm Calm - N/A   Scattered Clouds
3:53 AM 69.1 °F - 64.0 °F 84% 30.10 in 10.0 mi Calm Calm - N/A   Clear
4:53 AM 69.1 °F - 64.0 °F 84% 30.11 in 10.0 mi Calm Calm - N/A   Mostly Cloudy
5:53 AM 68.0 °F - 64.0 °F 87% 30.12 in 9.0 mi Calm Calm - N/A   Clear
6:53 AM 71.1 °F - 64.9 °F 81% 30.14 in 10.0 mi East 3.5 mph - N/A   Clear
7:53 AM 73.9 °F - 66.0 °F 76% 30.15 in 10.0 mi ESE 3.5 mph - N/A   Clear
8:53 AM 79.0 °F - 66.9 °F 66% 30.15 in 10.0 mi Variable 3.5 mph - N/A   Clear
9:53 AM 82.9 °F 85.8 °F 68.0 °F 60% 30.15 in 10.0 mi Variable 3.5 mph - N/A   Clear
10:53 AM 86.0 °F 88.8 °F 66.9 °F 53% 30.15 in 10.0 mi Calm Calm - N/A   Scattered Clouds
11:53 AM 88.0 °F 90.7 °F 66.9 °F 49% 30.14 in 10.0 mi South 6.9 mph - N/A   Scattered Clouds
12:53 PM 88.0 °F 89.6 °F 64.9 °F 46% 30.13 in 10.0 mi Calm Calm - N/A   Scattered Clouds
1:53 PM 84.0 °F 86.5 °F 66.9 °F 56% 30.11 in 10.0 mi NE 6.9 mph - N/A   Mostly Cloudy
2:53 PM 87.1 °F 89.2 °F 66.0 °F 49% 30.08 in 10.0 mi ENE 4.6 mph - 0.00 in   Partly Cloudy
3:53 PM 84.0 °F 87.0 °F 68.0 °F 58% 30.08 in 10.0 mi SE 4.6 mph - N/A Thunderstorm Thunderstorm
4:23 PM 80.6 °F 83.2 °F 68.0 °F 65% 30.08 in 10.0 mi Variable 3.5 mph - N/A Thunderstorm Partly Cloudy
4:53 PM 82.0 °F 84.5 °F 66.9 °F 60% 30.06 in 10.0 mi ENE 3.5 mph - N/A   Clear
6:53 PM 82.0 °F 85.5 °F 69.1 °F 65% 30.06 in 10.0 mi SSE 3.5 mph - N/A   Partly Cloudy
7:53 PM 77.0 °F - 66.0 °F 69% 30.07 in 10.0 mi SE 8.1 mph - N/A   Clear
8:05 PM 75.2 °F - 66.2 °F 73% 30.09 in 10.0 mi ESE 5.8 mph - N/A Thunderstorm Clear
8:29 PM 73.4 °F - 66.2 °F 78% 30.09 in 10.0 mi SE 3.5 mph - N/A   Partly Cloudy
8:53 PM 75.9 °F - 66.0 °F 71% 30.08 in 10.0 mi South 3.5 mph - N/A   Clear
9:53 PM 73.9 °F - 66.0 °F 76% 30.10 in 10.0 mi SSE 3.5 mph - N/A   Partly Cloudy
10:53 PM 71.1 °F - 66.0 °F 84% 30.10 in 10.0 mi SE 3.5 mph - N/A   Clear
11:53 PM 70.0 °F - 66.0 °F 87% 30.10 in 9.0 mi Calm Calm - N/A   Clear